"TOA5","AWS1","CR1000","7964","CR1000.Std.14","CPU:AWS1_114.CR1","64363","TBL110"
"TIMESTAMP","RECORD","Wind_spd_WVc(1)","Wind_spd_WVc(2)","Air_Temp_Avg","Humidity_Avg","SW_upper_Wm2_Avg","Rain_Tot","Press_Avg","Issui_Tot","Depth_cm","SR50A_Raw","Quality","Ground_Temp_Avg(1)","Ground_Temp_Avg(2)","SW_lower_Wm2_Avg","Albedo_Avg","SWC_per(1)","SWC_per(2)","Period(1)","Period(2)"
"TS","RN","","","","","","","","","","","","","","","","","","",""
"","","WVc","WVc","Avg","Avg","Avg","Tot","Avg","Tot","Smp","Smp","Smp","Avg","Avg","Avg","Avg","Smp","Smp","Smp","Smp"
"2013-10-19 00:00:00",100285,0.017,189.3,7.375,93.6,0,0,876.5118,0,-1.494,3.152,246,10.55,11.33,0.5040089,0,49.3,57.22,33.12,35.03
"2013-10-19 00:10:00",100286,0,0,7.415,93.4,0,0,876.5076,0,-1.421,3.152,249,10.46,11.33,0.5153776,0,49.3,57.22,33.12,35.03
"2013-10-19 00:20:00",100287,0,0,7.247,93.5,0,0,876.5055,0,-1.399,3.153,250,10.46,11.34,0.2349515,0,49.3,57.22,33.12,35.03
"2013-10-19 00:30:00",100288,0,0,7.147,93.8,0,0,876.5076,0,-1.274,3.152,242,10.48,11.34,0.2273725,0,49.3,57.22,33.12,35.03
"2013-10-19 00:40:00",100289,0.06,135.1,7.181,93.8,0,0,876.4971,0,-1.402,3.154,241,10.5,11.36,0.272847,0,49.3,57.22,33.12,35.03
"2013-10-19 00:50:00",100290,0.062,136.9,7.022,94.2,0,0,876.1559,0,-1.374,3.153,241,10.5,11.38,0.2273725,0,49.3,57.22,33.12,35.03
"2013-10-19 01:00:00",100291,0.085,149.3,7.132,94.5,0,0,876,0,-1.196,3.151,234,10.45,11.36,0.4585344,0,49.3,57.16,33.12,35.02
"2013-10-19 01:10:00",100292,0.186,94,7.396,93.8,0,0,876.0379,0,-1.547,3.153,224,10.38,11.37,0.6821174,0,49.35,57.16,33.14,35.02
"2013-10-19 01:20:00",100293,0.102,203.7,7.294,93,0,0,876.2507,0,-1.347,3.152,231,10.4,11.39,0.3448482,0,49.3,57.16,33.12,35.02
"2013-10-19 01:30:00",100294,0.018,200.2,7.153,93.4,0,0,876.0969,0,-1.196,3.151,230,10.41,11.39,0.2273725,0,49.35,57.16,33.14,35.02
"2013-10-19 01:40:00",100295,0.103,200.5,7.318,92.8,0,0,876.0653,0,-1.243,3.15,224,10.41,11.37,0.6139057,0,49.3,57.16,33.12,35.02
"2013-10-19 01:50:00",100296,0,0,7.503,90.9,0,0,876.4044,0,-1.366,3.15,229,10.41,11.4,0.693486,0,49.3,57.16,33.12,35.02
"2013-10-19 02:00:00",100297,0.01,155,7.314,91.5,0,0,876.5055,0,-1.095,3.15,234,10.43,11.4,0.2576888,0,49.3,57.16,33.12,35.02
"2013-10-19 02:10:00",100298,0.094,174.4,7.129,92.9,0,0,876.3728,0,-1.095,3.15,222,10.37,11.4,0.2273725,0,49.3,57.16,33.12,35.02
"2013-10-19 02:20:00",100299,0.087,189.1,7.255,92.6,0,0,876.2528,0,-1.372,3.152,212,10.33,11.41,0.4736926,0,49.3,57.16,33.12,35.02
"2013-10-19 02:30:00",100300,0.119,189.9,7.196,92,0,0,876.2528,0,-1.095,3.15,212,10.33,11.4,0.2273725,0,49.3,57.16,33.12,35.02
"2013-10-19 02:40:00",100301,0.082,189,7.148,92.4,0,0,876.1938,0,-0.993,3.149,227,10.33,11.38,0.2273725,0,49.3,57.16,33.12,35.02
"2013-10-19 02:50:00",100302,0.144,211.1,7.143,92.8,0,0,876.0526,0,-0.739,3.146,222,10.33,11.38,0.2690574,0,49.3,57.16,33.12,35.02
"2013-10-19 03:00:00",100303,0.018,258.1,7.539,89.1,0,0,876.2528,0,-0.831,3.144,227,10.33,11.38,0.8374885,0,49.3,57.16,33.12,35.02
"2013-10-19 03:10:00",100304,0.075,241.7,7.554,88.2,0,0,876.0126,0,-0.917,3.148,220,10.31,11.37,0.4699031,0,49.3,57.16,33.12,35.02
"2013-10-19 03:20:00",100305,0.13,212.2,7.252,90.7,0,0,876.2843,0,-1.061,3.147,205,10.23,11.38,0.3827437,0,49.3,57.16,33.12,35.02
"2013-10-19 03:30:00",100306,0,0,7.768,86.2,0,0,876.5055,0,-1.16,3.147,220,10.24,11.37,0.735171,0,49.3,57.1,33.12,35.01
"2013-10-19 03:40:00",100307,0.118,191.9,7.41,89.8,0,0,876.4949,0,-0.942,3.148,215,10.24,11.36,0.1629503,0,49.3,57.1,33.12,35.01
"2013-10-19 03:50:00",100308,0.15,182.9,7.091,91.7,0,0,876.0527,0,-0.871,3.149,221,10.24,11.39,0.09473852,0,49.24,57.1,33.11,35.01
"2013-10-19 04:00:00",100309,0.589,84,7.193,91.5,0,0,875.5661,0,-0.73,3.143,210,10.24,11.38,0.5267462,0,49.3,57.1,33.12,35.01
"2013-10-19 04:10:00",100310,0.565,96.7,7.743,86.2,0,0,875.5134,0,-0.706,3.143,211,10.24,11.37,0.8412781,0,49.3,57.1,33.12,35.01
"2013-10-19 04:20:00",100311,0.439,11.09,8.16,83,0,0,875.3976,0,-0.92,3.141,218,10.24,11.36,1.356656,0,49.3,57.1,33.12,35.01
"2013-10-19 04:30:00",100312,0.374,28.76,7.746,87.3,0,0,875.7178,0,-0.659,3.144,219,10.24,11.35,0.2046352,0,49.3,57.1,33.12,35.01
"2013-10-19 04:40:00",100313,0.187,186.3,7.355,90,0,0,875.5598,0,-0.816,3.147,214,10.25,11.37,0.1212653,0,49.24,57.1,33.11,35.01
"2013-10-19 04:50:00",100314,0.226,335.1,7.427,89.6,0,0,875.505,0,-1.182,3.146,210,10.19,11.36,0.4699031,0,49.3,57.1,33.12,35.01
"2013-10-19 05:00:00",100315,0.646,24.67,8.04,84.7,0,0,875.3913,0,-0.699,3.141,214,10.13,11.36,0.8526467,0,49.3,57.1,33.12,35.01
"2013-10-19 05:10:00",100316,0.424,50.03,7.975,84.8,0,0,875.2712,0,-0.881,3.144,209,10.11,11.36,0.2122143,0,49.3,57.1,33.12,35.01
"2013-10-19 05:20:00",100317,0.204,198.7,7.801,86.5,0,0,875.3239,0,-0.908,3.145,210,10.12,11.35,0.1364235,0,49.24,57.1,33.11,35.01
"2013-10-19 05:30:00",100318,0.121,111.5,7.518,89.4,0,0,875.4882,0,-0.76,3.145,220,10.12,11.34,0.01515816,0,49.24,57.1,33.11,35.01
"2013-10-19 05:40:00",100319,0,0,7.518,88.7,0,0,875.5008,0,-0.985,3.146,211,10.13,11.33,0.1629503,0,49.24,57.1,33.11,35.01
"2013-10-19 05:50:00",100320,0.023,306.7,7.601,87.8,0,0,875.8905,0,-0.961,3.146,217,10.15,11.34,0.2273725,0,49.24,57.04,33.11,34.99
"2013-10-19 06:00:00",100321,0,0,7.487,90.2,0,0,876.1011,0,-1.016,3.148,211,10.15,11.34,0.1174758,0,49.24,57.1,33.11,35.01
"2013-10-19 06:10:00",100322,0,0,7.385,90.9,0.003930284,0,876.2528,0,-0.939,3.147,213,10.15,11.34,0.1705294,0.016,49.24,57.1,33.11,35.01
"2013-10-19 06:20:00",100323,0.378,132.2,7.426,89.9,1.014013,0,875.9937,0,-0.58,3.142,221,10.16,11.36,0.6631697,0.688,49.3,57.04,33.12,34.99
"2013-10-19 06:30:00",100324,0.763,50.59,7.623,87.1,3.05383,0,875.7999,0,-0.58,3.142,215,10.15,11.35,1.409709,0.482,49.24,57.04,33.11,34.99
"2013-10-19 06:40:00",100325,0.867,20.47,7.902,84.1,7.341769,0,876,0,-0.318,3.137,226,10.15,11.36,2.429096,0.337,49.3,57.04,33.12,34.99
"2013-10-19 06:50:00",100326,0.231,201.1,8.12,83.2,8.104244,0,876.0126,0,-0.678,3.142,228,10.13,11.35,2.110774,0.26,49.24,57.04,33.11,34.99
"2013-10-19 07:00:00",100327,0.143,194.1,7.776,87,9.935757,0,876.1369,0,-0.524,3.14,227,10.13,11.35,1.769716,0.177,49.24,57.04,33.11,34.99
"2013-10-19 07:10:00",100328,0,0,7.945,86,13.05236,0,876.2086,0,-0.55,3.141,228,10.1,11.35,2.368443,0.181,49.24,57.04,33.11,34.99
"2013-10-19 07:20:00",100329,0,0,7.895,86.8,13.33531,0,876.4528,0,-0.778,3.143,235,10.11,11.35,2.478333,0.186,49.24,57.04,33.11,34.99
"2013-10-19 07:30:00",100330,0,0,7.765,89.7,13.19783,0,876.6909,0,-0.705,3.143,236,10.1,11.35,2.084238,0.158,49.24,57.04,33.11,34.99
"2013-10-19 07:40:00",100331,0.122,109.1,7.673,90.8,16.65258,0,876.7582,0,-0.628,3.142,229,10.1,11.36,2.629937,0.158,49.24,57.04,33.11,34.99
"2013-10-19 07:50:00",100332,0.066,122.1,7.787,90.7,19.27348,0,876.7582,0,-0.57,3.141,236,10.09,11.36,2.853431,0.148,49.24,57.04,33.11,34.99
"2013-10-19 08:00:00",100333,0.094,73.67,8.05,87.2,37.04182,0,876.674,0,-0.615,3.139,226,10.09,11.36,5.377199,0.146,49.24,57.04,33.11,34.99
"2013-10-19 08:10:00",100334,0.856,50,8.61,79.87,66.14041,0,876.5518,0,-0.857,3.139,224,10.09,11.34,9.950987,0.151,49.24,57.04,33.11,34.99
"2013-10-19 08:20:00",100335,0.412,15,8.86,78.04,74.4157,0,876.7582,0,-0.71,3.134,233,10.07,11.31,11.02315,0.148,49.3,57.04,33.12,34.99
"2013-10-19 08:30:00",100336,0.215,10.25,9.27,76.84,64.49737,0,876.9608,0,-0.815,3.137,222,10.1,11.3,9.518382,0.148,49.24,57.04,33.11,34.99
"2013-10-19 08:40:00",100337,0.246,343.7,8.93,79.46,68.44898,0,876.908,0,-1.063,3.139,224,10.11,11.29,9.196047,0.134,49.24,56.98,33.11,34.98
"2013-10-19 08:50:00",100338,0.225,161.1,9.17,74.84,80.11687,0,876.8809,0,-6.689,3.193,196,10.08,11.28,10.4384,0.131,49.24,56.98,33.11,34.98
"2013-10-19 09:00:00",100339,0.541,194.4,9.23,75.26,100.3421,0,876.7126,0,-7.797,3.204,193,10.04,11.26,11.99464,0.119,49.24,56.98,33.11,34.98
"2013-10-19 09:10:00",100340,0.707,193.9,9.38,73.93,97.3427,0,876.6689,0,-7.358,3.199,194,10.03,11.25,11.206,0.115,49.24,56.98,33.11,34.98
"2013-10-19 09:20:00",100341,0.202,222.7,9.55,72.09,87.96211,0,876.668,0,-0.97,3.135,244,10.02,11.24,10.01245,0.114,49.3,56.98,33.12,34.98
"2013-10-19 09:30:00",100342,0.678,299.9,9.71,69.97,108.9186,0,876.717,0,-0.838,3.133,238,10.01,11.24,12.76266,0.117,49.24,56.98,33.11,34.98
"2013-10-19 09:40:00",100343,0.552,285.8,9.78,70.28,125.2667,0,876.8467,0,-0.785,3.132,228,10.13,11.24,14.93709,0.119,49.24,56.98,33.11,34.98
"2013-10-19 09:50:00",100344,0.145,278.2,9.86,77.56,152.9814,0,876.6696,0,-7.631,3.2,175,10.12,11.26,18.20634,0.119,49.24,56.98,33.11,34.98
"2013-10-19 10:00:00",100345,0.171,269.7,9.67,81.8,122.5831,0,876.6212,0,-7.478,3.198,190,10.09,11.27,13.32707,0.108,49.24,56.98,33.11,34.98
"2013-10-19 10:10:00",100346,0.218,198.9,9.93,75.76,141.7446,0,876.6359,0,-4.98,3.172,248,10.14,11.28,16.2857,0.115,49.24,56.98,33.11,34.98
"2013-10-19 10:20:00",100347,0.345,198.8,10.02,76.37,163.4206,0,876.4275,0,-7.143,3.193,196,10.2,11.28,19.35039,0.118,49.19,56.98,33.09,34.98
"2013-10-19 10:30:00",100348,0.205,183.1,10.37,73.41,190.4714,0,876.379,0,-8.08,3.199,186,10.21,11.28,23.29017,0.122,49.24,56.98,33.11,34.98
"2013-10-19 10:40:00",100349,0.061,313.8,10.62,75.96,160.1557,0,876.3391,0,-1.021,3.13,304,10.24,11.25,18.73669,0.117,49.24,56.98,33.11,34.98
"2013-10-19 10:50:00",100350,0.139,359.3,10.39,83.9,136.8413,0,876.4043,0,-0.907,3.132,270,10.26,11.24,14.39536,0.105,49.24,56.93,33.11,34.97
"2013-10-19 11:00:00",100351,0.355,346.9,9.74,86.9,102.742,0,876.4169,0,-0.919,3.135,302,10.26,11.26,9.910067,0.096,49.24,56.93,33.11,34.97
"2013-10-19 11:10:00",100352,0.263,354,9.34,89,92.55419,0,876.419,0,-0.829,3.137,256,10.32,11.28,9.538818,0.1,49.19,56.93,33.09,34.97
"2013-10-19 11:20:00",100353,0.256,357.5,8.95,91.4,104.5453,0,876.4106,0,-0.374,3.133,277,10.37,11.29,11.48977,0.107,49.24,56.98,33.11,34.98
"2013-10-19 11:30:00",100354,0.258,9.43,8.73,92.5,74.80322,0,876.4001,0,-0.687,3.138,246,10.38,11.27,8.034883,0.104,49.19,56.93,33.09,34.97
"2013-10-19 11:40:00",100355,0.018,124.4,8.98,93.6,204.1756,0,876.1896,0,-1.127,3.138,307,10.46,11.24,26.55943,0.13,49.19,56.93,33.09,34.97
"2013-10-19 11:50:00",100356,0.23,21.25,9.61,89.9,245.1977,0,876.0506,0,-3.154,3.156,281,10.47,11.27,31.70388,0.129,49.24,56.93,33.11,34.97
"2013-10-19 12:00:00",100357,0.098,117.5,10.15,85.3,243.4218,0,875.9116,0,-6.984,3.189,222,10.52,11.26,30.69621,0.126,49.24,56.93,33.11,34.97
"2013-10-19 12:10:00",100358,0.191,323.2,10.57,84.7,238.9232,0,875.8906,0,-7.188,3.191,230,10.54,11.23,29.4082,0.123,49.19,56.93,33.09,34.97
"2013-10-19 12:20:00",100359,0.245,36.96,10.55,85.8,206.8351,0,875.7811,0,-44.87,3.56,302,10.58,11.23,24.5251,0.119,49.19,56.93,33.09,34.97
"2013-10-19 12:30:00",100360,0.136,6.492,10.75,85.1,171.9503,0,875.6506,0,-41.78,3.529,225,10.61,11.23,19.69423,0.114,49.19,56.93,33.09,34.97
"2013-10-19 12:40:00",100361,0.213,349.6,10.76,84.6,163.7134,0,875.48,0,-40.93,3.521,224,10.62,11.22,18.68165,0.114,49.13,56.93,33.08,34.97
"2013-10-19 12:50:00",100362,0.01,217.8,10.95,85.1,165.4588,0,875.3832,0,-0.645,3.123,337,10.65,11.24,19.08619,0.115,49.19,56.93,33.09,34.97
"2013-10-19 13:00:00",100363,0.068,2.491,11.23,83.2,182.1743,0,875.3787,0,-6.304,3.179,200,10.69,11.26,21.07383,0.115,49.19,56.93,33.09,34.97
"2013-10-19 13:10:00",100364,0.067,349.8,11.32,83.6,200.5643,0,875.3701,0,-1.19,3.128,329,10.71,11.23,23.58764,0.117,49.19,56.93,33.09,34.97
"2013-10-19 13:20:00",100365,0.393,11.77,11.03,85.2,161.2352,0,875.3198,0,-0.789,3.126,250,10.76,11.21,17.70523,0.11,49.19,56.93,33.09,34.97
"2013-10-19 13:30:00",100366,0.086,343.1,11.07,85.2,169.0302,0,875.1151,0,-1.568,3.132,268,10.8,11.2,19.77663,0.117,49.13,56.87,33.08,34.95
"2013-10-19 13:40:00",100367,0.022,198.1,11.44,82.1,198.6403,0,875.0725,0,-1.172,3.126,289,10.87,11.17,24.25616,0.122,49.19,56.87,33.09,34.95
"2013-10-19 13:50:00",100368,0.288,35,11.65,77.95,242.4849,0,874.9492,0,-3.615,3.149,282,10.89,11.17,30.25432,0.124,49.13,56.93,33.08,34.97
"2013-10-19 14:00:00",100369,0.056,72.01,11.87,73.73,250.2387,0,874.8001,0,-5.19,3.162,254,10.92,11.21,30.78079,0.123,49.13,56.93,33.08,34.97
"2013-10-19 14:10:00",100370,0.239,117.8,12.3,75.03,226.5822,0,874.6584,0,-4.985,3.16,224,10.96,11.23,25.56227,0.112,49.13,56.93,33.08,34.97
"2013-10-19 14:20:00",100371,0.133,102.7,12.21,75.16,208.1209,0,874.5513,0,-0.18,3.113,412,11.04,11.23,23.08163,0.111,49.13,56.87,33.08,34.95
"2013-10-19 14:30:00",100372,0.151,15.39,12.27,78.07,213.0336,0,874.5486,0,-0.18,3.113,343,11.04,11.23,25.25527,0.118,49.13,56.93,33.08,34.97
"2013-10-19 14:40:00",100373,0.11,36.69,12.18,77.37,197.5468,0,874.5521,0,-0.384,3.115,311,11.12,11.23,22.85052,0.116,49.13,56.87,33.08,34.95
"2013-10-19 14:50:00",100374,0.029,137.9,12.13,79.57,152.5993,0,874.5519,0,-0.696,3.119,269,11.12,11.23,15.79541,0.1,49.08,56.87,33.07,34.95
"2013-10-19 15:00:00",100375,0.099,357.8,12.04,80.1,195.5241,0,874.613,0,-0.498,3.118,332,11.21,11.21,22.38472,0.113,49.08,56.93,33.07,34.97
"2013-10-19 15:10:00",100376,0.093,94.4,11.98,80.3,131.3824,0,874.5266,0,-1.158,3.124,243,11.23,11.22,12.80371,0.097,49.08,56.93,33.07,34.97
"2013-10-19 15:20:00",100377,0.249,38.8,11.79,82,128.6566,0,874.5119,0,-0.814,3.123,281,11.29,11.24,13.60655,0.105,49.08,56.87,33.07,34.95
"2013-10-19 15:30:00",100378,0.103,117.4,11.58,81.7,114.7529,0,874.373,0,-0.736,3.122,252,11.34,11.25,11.88727,0.102,49.08,56.87,33.07,34.95
"2013-10-19 15:40:00",100379,0,0,11.42,78.46,84.1411,0,874.4257,0,-0.765,3.123,256,11.36,11.27,8.592611,0.1,49.08,56.87,33.07,34.95
"2013-10-19 15:50:00",100380,0.109,52.93,11.42,83.2,87.70779,0,874.5414,0,-0.665,3.122,253,11.41,11.29,9.482595,0.107,49.08,56.87,33.07,34.95
"2013-10-19 16:00:00",100381,0,0,11.42,85,80.85097,0,874.4785,0,-0.87,3.124,229,11.45,11.3,8.581377,0.105,49.08,56.87,33.07,34.95
"2013-10-19 16:10:00",100382,0.049,41.6,11.24,85.3,72.27721,0,874.5273,0,-0.778,3.125,238,11.49,11.29,7.513474,0.104,49.03,56.87,33.05,34.95
"2013-10-19 16:20:00",100383,0.117,33.43,10.98,86.2,42.42754,0,874.3755,0,-0.713,3.125,240,11.51,11.31,3.760588,0.088,49.03,56.87,33.05,34.95
"2013-10-19 16:30:00",100384,0.053,286.5,11,86.5,34.01284,0,874.5576,0,-0.596,3.124,249,11.58,11.33,3.177609,0.093,49.03,56.87,33.05,34.95
"2013-10-19 16:40:00",100385,0.047,204.6,10.87,86.6,29.31213,0,874.5936,0,-0.449,3.123,268,11.56,11.32,2.852001,0.096,49.03,56.87,33.05,34.95
"2013-10-19 16:50:00",100386,0.077,43.82,10.75,87.7,15.55597,0,874.559,0,-0.258,3.122,291,11.59,11.32,1.272634,0.08,49.08,56.87,33.07,34.95
"2013-10-19 17:00:00",100387,0.337,69.64,10.55,88.5,4.321399,0,874.598,0,-0.405,3.125,274,11.64,11.34,0.0454533,0.006,49.03,56.87,33.05,34.95
"2013-10-19 17:10:00",100388,0.271,56.16,10.41,89,0.4046625,0,874.5277,0,-0.566,3.127,271,11.66,11.36,0,0,49.03,56.87,33.05,34.95
"2013-10-19 17:20:00",100389,0.196,179.8,10.2,90.3,0,0,874.6418,0,-0.446,3.127,280,11.68,11.36,0,0,49.03,56.87,33.05,34.95
"2013-10-19 17:30:00",100390,0,0,10.03,90.8,0,0,874.6397,0,-0.528,3.129,272,11.68,11.38,0,0,49.03,56.81,33.05,34.94
"2013-10-19 17:40:00",100391,0.109,181,9.81,91.3,0,0,874.5387,0,-0.557,3.13,272,11.66,11.4,0,0,48.97,56.81,33.04,34.94
"2013-10-19 17:50:00",100392,0.105,182.3,9.76,91.7,0,0,874.5787,0,-0.377,3.128,276,11.66,11.44,0.09470621,0,49.03,56.81,33.05,34.94
"2013-10-19 18:00:00",100393,0.02,188.8,9.79,90.3,0,0,874.6418,0,-0.581,3.13,273,11.65,11.47,0.2462362,0,48.97,56.81,33.04,34.94
"2013-10-19 18:10:00",100394,0,0,9.67,90.5,0,0,874.6376,0,-0.46,3.13,281,11.67,11.52,0.2272949,0,49.03,56.81,33.05,34.94
"2013-10-19 18:20:00",100395,0,0,9.79,89.1,0,0,874.6418,0,-0.659,3.131,256,11.67,11.53,0.3826131,0,48.97,56.81,33.04,34.94
"2013-10-19 18:30:00",100396,0.067,203.1,9.7,89.6,0,0,874.665,0,-0.508,3.13,262,11.67,11.5,0.2272949,0,48.97,56.81,33.04,34.94
"2013-10-19 18:40:00",100397,0.134,202,9.62,89.8,0,0,874.6755,0,-0.585,3.131,263,11.64,11.49,0.2272949,0,48.97,56.81,33.04,34.94
"2013-10-19 18:50:00",100398,0.035,202.5,9.59,89.5,0,0,874.6544,0,-0.716,3.133,249,11.63,11.49,0.2272949,0,48.97,56.81,33.04,34.94
"2013-10-19 19:00:00",100399,0,0,9.56,87.1,0,0,874.6586,0,-0.818,3.134,243,11.62,11.46,0.2272949,0,49.03,56.81,33.05,34.94
"2013-10-19 19:10:00",100400,0.047,297.3,9.62,85.5,0,0,874.5513,0,-1.062,3.134,241,11.58,11.45,0.4318604,0,49.03,56.81,33.05,34.94
"2013-10-19 19:20:00",100401,0.07,21.76,10.1,84.9,0,0,874.4039,0,-1.017,3.135,244,11.58,11.52,0.8940267,0,49.03,56.81,33.05,34.94
"2013-10-19 19:30:00",100402,0.013,243.1,9.44,89.1,0,0,874.3155,0,-1.045,3.136,249,11.59,11.54,0.1325887,0,49.03,56.81,33.05,34.94
"2013-10-19 19:40:00",100403,0.147,175,9.23,90.2,0,0,874.3976,0,-0.772,3.135,250,11.54,11.58,0.09470621,0,48.97,56.81,33.04,34.94
"2013-10-19 19:50:00",100404,0,0,9.36,89.7,0,0,874.7177,0,-0.87,3.135,244,11.5,11.62,0.2386597,0,48.97,56.75,33.04,34.93
"2013-10-19 20:00:00",100405,0,0,9.2,90.3,0,0,875.0419,0,-0.829,3.137,243,11.49,11.62,0.1288005,0,48.97,56.75,33.04,34.93
"2013-10-19 20:10:00",100406,0.051,181.6,8.95,90.3,0,0,874.9514,0,-0.833,3.138,242,11.51,11.6,0.01894124,0,48.97,56.75,33.04,34.93
"2013-10-19 20:20:00",100407,0.219,181.8,8.86,90.4,0,0,874.8945,0,-0.553,3.135,246,11.53,11.59,0.1363769,0,49.03,56.75,33.05,34.93
"2013-10-19 20:30:00",100408,0,0,9.23,87.2,0,0,874.8376,0,-0.667,3.133,234,11.47,11.58,0.5568725,0,48.97,56.75,33.04,34.93
"2013-10-19 20:40:00",100409,0.06,182.1,9.42,85.2,0,0,874.8945,0,-0.667,3.133,240,11.39,11.58,0.5606608,0,48.97,56.75,33.04,34.93
"2013-10-19 20:50:00",100410,0.174,185.3,9.1,87.8,0,0,874.8945,0,-0.451,3.134,240,11.41,11.63,0.2500244,0,48.92,56.75,33.03,34.93
"2013-10-19 21:00:00",100411,0.017,190,9.06,87.5,0,0,874.8945,0,-0.569,3.133,237,11.41,11.63,0.3750366,0,48.97,56.75,33.04,34.93
"2013-10-19 21:10:00",100412,0.025,188.8,9.21,85.7,0,0,874.8945,0,-0.626,3.135,240,11.4,11.63,0.3901896,0,48.97,56.75,33.04,34.93
"2013-10-19 21:20:00",100413,0.149,189.1,8.97,87.9,0,0,874.8608,0,-0.678,3.136,241,11.34,11.65,0.2272949,0,48.97,56.75,33.04,34.93
"2013-10-19 21:30:00",100414,0.063,189,8.92,87.4,0,0,874.6566,0,-0.573,3.134,242,11.35,11.69,0.3030599,0,48.97,56.75,33.04,34.93
"2013-10-19 21:40:00",100415,0.149,197.1,9.12,85.3,0,0,874.7861,0,-0.68,3.136,247,11.33,11.7,0.5909669,0,48.97,56.7,33.04,34.91
"2013-10-19 21:50:00",100416,0.097,156.4,8.87,87.1,0,0,874.9017,0,-0.428,3.134,252,11.32,11.71,0.2272978,0,48.97,56.7,33.04,34.91
"2013-10-19 22:00:00",100417,0.124,177.4,8.76,87.9,0,0,874.6765,0,-0.634,3.137,242,11.35,11.71,0.227297,0,48.97,56.7,33.04,34.91
"2013-10-19 22:10:00",100418,0.156,177.9,8.73,87.3,0,0,874.6484,0,-0.606,3.136,240,11.33,11.71,0.2272958,0,48.92,56.75,33.03,34.93
"2013-10-19 22:20:00",100419,0.282,177.8,8.78,86.1,0,0,874.6204,0,-0.664,3.137,242,11.25,11.71,0.2272994,0,48.92,56.7,33.03,34.91
"2013-10-19 22:30:00",100420,0.213,177.6,8.63,87.2,0,0,874.4835,0,-0.543,3.136,241,11.24,11.72,0.2273078,0,48.92,56.7,33.03,34.91
"2013-10-19 22:40:00",100421,0.085,178,8.72,86.1,0,0,874.3988,0,-0.493,3.135,239,11.26,11.72,0.2424692,0,48.97,56.7,33.04,34.91
"2013-10-19 22:50:00",100422,0.056,176.9,8.97,83,0,0,874.1907,0,-0.699,3.137,233,11.28,11.72,0.6364898,0,48.97,56.7,33.04,34.91
"2013-10-19 23:00:00",100423,0.188,177.3,8.72,85.5,0,0,873.9135,0,-0.574,3.136,239,11.3,11.71,0.4622173,0,48.92,56.7,33.03,34.91
"2013-10-19 23:10:00",100424,0.38,178.2,8.65,85.5,0,0,873.9121,0,-0.479,3.136,241,11.23,11.7,0.6819724,0,48.97,56.7,33.04,34.91
"2013-10-19 23:20:00",100425,0.304,179.6,8.69,85.2,0,0,873.9047,0,-0.531,3.136,241,11.25,11.71,0.6819836,0,48.97,56.7,33.04,34.91
"2013-10-19 23:30:00",100426,0.097,179.5,8.79,84.6,0,0,873.8831,0,-0.525,3.135,240,11.21,11.7,0.6819793,0,48.97,56.7,33.04,34.91
"2013-10-19 23:40:00",100427,0.173,178.2,8.82,84.3,0,0,873.6606,0,-0.4,3.134,251,11.23,11.71,0.7539696,0,48.97,56.7,33.04,34.91
"2013-10-19 23:50:00",100428,0.266,180.1,8.75,85.2,0,0,873.5078,0,-0.399,3.134,249,11.23,11.71,0.6099946,0,48.92,56.7,33.03,34.91
